Location: Hradec Kralove
(50.2170°N, 15.8330°E)
Time: 05:23:23
(UTC+02:00)

TIGRISAT - Pass Details

Date: 11 August 2024
Orbit: 591 x 667 km, 97.7° (Epoch: 19 September)

Event Time Altitude Azimuth Distance (km) Brightness Sun altitude
Rises 03:51:59 0° 144° (SE) 2,923 ? -14.7°
Reaches altitude 10° 03:54:18 10° 136° (SE) 2,006 ? -14.5°
Maximum altitude 03:58:21 39° 68° (ENE) 938 ? -14.0°
Drops below altitude 10° 04:02:21 10° 0° (N) 1,977 ? -13.6°
Sets 04:04:36 0° 353° (N) 2,875 ? -13.3°
